[[{"header":{"parameterUnit":"m.s-1","parameterCategory":1,"la1":30.2991,"la2":30.254,"lo1":-89.0895,"lo2":-89.0444,"dy":0.0017,"dx":0.0017,"nx":28,"ny":28,"refTime":"2024-07-24T03:00:00:Z","depth":0,"parameterNumber":2,"parameterNumberName":"U-component_of_WINDS"},"data":[0,0,0,0,0,0,0,0,0,0,0,0,0,0,0,0,0,0,0,0,0,0,0,0,0,0,0,0,0,0,0,0,0,0,0,0,0,0,0,0,0,0,0,0,0,0,0,0,0,0,0,0,0,0,0,0,0,0,1.8158,1.8158,0,1.8203,1.8204,1.8204,1.8192,1.8191,1.8191,1.819,1.8234,1.8236,1.8238,0,0,0,0,0,0,0,0,0,0,0,0,0,1.8058,1.806,1.8158,1.8158,1.8159,1.8203,1.8204,1.8204,1.8193,1.8191,1.819,1.8189,1.8233,1.8236,1.8238,0,0,0,0,0,0,0,0,0,0,0,0,0,1.8102,1.806,1.8158,1.8158,1.8159,1.8203,1.8204,1.8205,1.8193,1.8191,1.819,1.8189,1.8233,1.8236,1.8239,1.8284,0,0,1.8248,1.8249,0,0,0,0,0,0,0,0,1.8099,1.8106,1.8158,1.8158,1.8159,1.8191,1.8185,1.8231,1.8193,1.818,1.819,1.8188,1.8221,1.8225,1.8236,1.8286,1.8288,1.8248,1.825,1.8251,1.8252,0,0,0,0,0,0,0,1.8096,1.8104,1.8176,1.8158,1.8159,1.8155,1.816,1.8194,1.8207,1.8181,1.818,1.8186,1.8221,1.8233,1.8237,1.8289,1.8248,1.8251,1.8253,1.8254,1.8378,1.8379,0,0,0,0,0,0,1.8093,1.8101,1.8174,1.8177,1.8125,1.8158,1.8164,1.8182,1.8207,1.8209,1.8187,1.8185,1.8229,1.8233,1.8238,1.8292,1.8251,1.8254,1.8256,1.8377,1.8378,1.838,0,0,0,0,0,0,1.8091,1.81,1.8172,1.8139,1.8148,1.8162,1.8182,1.8184,1.8196,1.8211,1.8213,1.8197,1.8228,1.8234,1.8273,1.8294,1.8255,1.8258,1.8375,1.8377,1.8379,1.8402,0,0,0,0,0,0,1.8088,1.8099,1.8117,1.8139,1.815,1.8207,1.8183,1.8185,1.8201,1.8199,1.8222,1.8224,1.8227,1.8268,1.8276,1.8297,1.8261,1.8373,1.8376,1.8378,1.8399,1.8404,1.8409,0,0,0,0,0,1.8085,1.8121,1.8118,1.8127,1.8173,1.8208,1.8214,1.8217,1.8203,1.8221,1.8231,1.8223,1.8291,1.8273,1.8281,1.8303,1.8372,1.8375,1.8378,1.8397,1.8403,1.8409,0,0,0,0,0,0,1.81,1.8124,1.8121,1.8166,1.8185,1.8206,1.8228,1.8224,1.8247,1.8244,1.8247,1.8252,1.8292,1.8302,1.8281,1.8349,1.8329,1.8334,1.834,1.8347,1.8351,1.8347,1.8263,0,0,0,0,0,1.8109,1.8136,1.8156,1.8194,1.8203,1.8214,1.823,1.8231,1.8251,1.8258,1.8271,1.829,1.8315,1.8332,1.8356,1.8401,1.8405,1.8421,1.8426,1.843,1.8433,1.8457,1.8464,1.8391,1.8391,1.8391,0,0,1.8127,1.8143,1.816,1.8197,1.8212,1.8239,1.8221,1.8251,1.8271,1.8263,1.83,1.831,1.8331,1.8373,1.8392,1.8382,1.8455,1.8434,1.8437,1.8439,1.8461,1.8468,1.8474,1.8393,1.8393,1.8392,0,0,1.8173,1.8189,1.8222,1.8238,1.8261,1.8268,1.8276,1.8298,1.8304,1.8342,1.8336,1.836,1.8404,1.8419,1.8432,1.8485,1.8478,1.8493,1.8518,1.8541,1.8546,1.8551,1.8569,1.8575,1.8497,1.8497,1.8497,0,1.8192,1.8234,1.8239,1.827,1.8285,1.8281,1.8313,1.8328,1.8357,1.8368,1.8358,1.8412,1.8426,1.8471,1.8484,1.8495,1.8503,1.8489,1.8545,1.855,1.8555,1.8572,1.8578,1.8499,1.8498,1.8498,1.8498,0,1.8256,1.8285,1.8308,1.8338,1.8356,1.8388,1.8397,1.8415,1.8415,1.8423,1.8461,1.8478,1.8505,1.8516,1.8516,1.8561,1.8554,1.8545,1.8524,1.8563,1.8579,1.8585,1.8501,1.85,1.85,1.8499,0,0,1.8311,1.8344,1.8352,1.8365,1.8391,1.8413,1.8444,1.8472,1.8486,1.8508,1.8532,1.857,1.8562,1.8577,1.8579,1.8599,1.8638,1.8587,1.8587,1.8594,1.8686,1.8692,1.8699,1.8635,1.8636,1.8637,1.8684,0,1.8358,1.8414,1.8419,1.8468,1.8494,1.8491,1.8517,1.8536,1.8544,1.8567,1.8576,1.8602,1.859,1.8599,1.8619,1.8629,1.8656,1.8626,1.8656,1.8657,1.8649,1.8707,1.8714,1.8757,1.869,1.8691,1.8692,0,1.842,1.8444,1.8496,1.8517,1.8529,1.8553,1.8578,1.8601,1.8621,1.8626,1.8643,1.8642,1.8673,1.8654,1.8696,1.8675,1.8688,1.8695,1.8697,1.8698,1.8676,1.8708,1.8771,1.8777,1.8702,1.8701,1.87,0,1.8454,1.8498,1.8535,1.8546,1.8573,1.859,1.8602,1.8621,1.8637,1.8659,1.8669,1.8695,1.8708,1.8727,1.8733,1.8719,1.8774,1.8756,1.8778,1.8778,1.8788,1.8787,1.8852,1.88,1.88,1.88,1.88,0,1.8505,1.8536,1.855,1.8572,1.8607,1.8613,1.8647,1.8658,1.8675,1.8699,1.8697,1.8719,1.8727,1.875,1.8755,1.8788,1.8794,1.8798,1.8799,1.8797,1.8796,1.8804,1.8801,1.8801,1.8801,1.8801,1.88,0,1.8546,1.8557,1.8596,1.8619,1.8626,1.865,1.8669,1.869,1.8699,1.8728,1.8736,1.8749,1.8776,1.8785,1.8817,1.882,1.8859,1.8858,1.8852,1.8851,1.8872,1.8869,1.8943,1.8952,1.8896,1.8896,1.8897,0,1.8577,1.8601,1.8627,1.8643,1.8655,1.8681,1.8698,1.8705,1.8723,1.8748,1.8765,1.8793,1.8814,1.8857,1.8869,1.8894,1.8892,1.8917,1.8896,1.8893,1.8891,1.8888,1.889,1.8919,1.892,1.8921,1.8921,0,1.863,1.8634,1.8659,1.8685,1.8705,1.8726,1.8746,1.8759,1.8769,1.8789,1.8817,1.8834,1.8867,1.8893,1.8919,1.893,1.8927,1.8928,1.8934,1.8931,1.8926,1.8928,1.886,1.8925,1.8925,1.8925,1.8924,1.8924,1.8666,1.8687,1.8708,1.8735,1.8751,1.877,1.8791,1.8803,1.8826,1.8855,1.8858,1.8888,1.8907,1.8941,1.8954,1.8976,1.8969,1.8979,1.8981,1.8982,1.8983,1.8925,1.8981,1.8981,1.8981,1.8981,1.8981,0,1.8717,1.8731,1.8756,1.8784,1.8806,1.8803,1.8825,1.8842,1.8869,1.8888,1.8909,1.8941,1.8967,1.8982,1.9007,1.9022,1.9022,1.9029,1.9027,1.9029,1.8989,1.898,1.9029,1.9029,1.9029,1.9029,1.9029,1.9029,1.8746,1.8781,1.8788,1.8831,1.8844,1.8874,1.8886,1.8904,1.8919,1.8955,1.8976,1.8986,1.9003,1.903,1.9053,1.9057,1.9065,1.9073,1.9075,1.9037,1.9032,1.9027,1.9019,1.9075,1.9075,1.9113,1.9114,1.9114]},{"header":{"parameterUnit":"m.s-1","parameterCategory":1,"la1":30.2991,"la2":30.254,"lo1":-89.0895,"lo2":-89.0444,"dy":0.0017,"dx":0.0017,"nx":28,"ny":28,"refTime":"2024-07-24T03:00:00:Z","depth":0,"parameterNumber":3,"parameterNumberName":"V-component_of_WINDS"},"data":[0,0,0,0,0,0,0,0,0,0,0,0,0,0,0,0,0,0,0,0,0,0,0,0,0,0,0,0,0,0,0,0,0,0,0,0,0,0,0,0,0,0,0,0,0,0,0,0,0,0,0,0,0,0,0,0,0,0,0.0876,0.0876,0,0.0873,0.0873,0.0873,0.0858,0.0858,0.0858,0.0857,0.0855,0.0855,0.0856,0,0,0,0,0,0,0,0,0,0,0,0,0,0.0868,0.0869,0.0876,0.0876,0.0876,0.0873,0.0873,0.0873,0.0858,0.0858,0.0857,0.0857,0.0855,0.0855,0.0856,0,0,0,0,0,0,0,0,0,0,0,0,0,0.0869,0.0869,0.0876,0.0868,0.0867,0.0873,0.0873,0.0873,0.0858,0.0858,0.0857,0.0857,0.0855,0.0855,0.0856,0.0869,0,0,0.0857,0.0857,0,0,0,0,0,0,0,0,0.0869,0.087,0.0869,0.0869,0.0868,0.0866,0.087,0.0872,0.0859,0.0862,0.0857,0.0857,0.0859,0.0859,0.086,0.0869,0.0869,0.0857,0.0857,0.0858,0.0858,0,0,0,0,0,0,0,0.0869,0.087,0.0875,0.0869,0.0868,0.0865,0.0864,0.087,0.0864,0.0862,0.086,0.086,0.0859,0.086,0.086,0.0869,0.0857,0.0858,0.0858,0.0858,0.0889,0.089,0,0,0,0,0,0,0.087,0.087,0.0875,0.0875,0.0867,0.0865,0.0865,0.0867,0.0863,0.0862,0.0861,0.086,0.0859,0.0859,0.086,0.0875,0.0858,0.0858,0.0858,0.0888,0.0889,0.089,0,0,0,0,0,0,0.087,0.0871,0.0875,0.0872,0.0872,0.0866,0.0868,0.0867,0.0868,0.0863,0.0862,0.0863,0.0859,0.0859,0.0867,0.0875,0.0858,0.0859,0.0888,0.0889,0.0889,0.0906,0,0,0,0,0,0,0.087,0.0871,0.0876,0.0872,0.0872,0.0882,0.0869,0.0867,0.0869,0.0867,0.0865,0.0864,0.0858,0.0866,0.0867,0.0875,0.0859,0.0887,0.0888,0.0889,0.0904,0.0907,0.0909,0,0,0,0,0,0.087,0.0881,0.0876,0.0877,0.0879,0.0883,0.0883,0.0876,0.0869,0.0874,0.0871,0.0864,0.0874,0.0867,0.0868,0.0876,0.0886,0.0888,0.0889,0.0903,0.0906,0.0909,0,0,0,0,0,0,0.0886,0.088,0.0875,0.0885,0.0885,0.088,0.0886,0.088,0.0882,0.088,0.0872,0.0872,0.0881,0.0879,0.0872,0.0889,0.0879,0.088,0.0889,0.0892,0.0894,0.0894,0.0859,0,0,0,0,0,0.089,0.0894,0.0889,0.0899,0.0899,0.0893,0.0894,0.0889,0.0888,0.0888,0.0885,0.0885,0.0888,0.089,0.0892,0.0904,0.0903,0.091,0.0912,0.0914,0.0916,0.0921,0.0924,0.0894,0.0894,0.0894,0,0,0.09,0.0898,0.0901,0.0902,0.0901,0.0905,0.0892,0.0897,0.09,0.0889,0.0896,0.0894,0.0893,0.0903,0.0907,0.0902,0.0924,0.0916,0.0918,0.0918,0.0923,0.0926,0.0928,0.0895,0.0895,0.0894,0,0,0.092,0.0919,0.0926,0.0925,0.0923,0.0919,0.0921,0.0918,0.0916,0.0923,0.0914,0.0918,0.0923,0.0923,0.0923,0.0943,0.0936,0.0944,0.0956,0.0962,0.0964,0.0966,0.0973,0.0975,0.0945,0.0945,0.0945,0,0.0932,0.0938,0.0931,0.0936,0.0937,0.0926,0.0934,0.0933,0.0933,0.0934,0.0928,0.0934,0.0933,0.0942,0.0947,0.0948,0.0949,0.0944,0.0964,0.0966,0.0968,0.0974,0.0977,0.0946,0.0946,0.0946,0.0946,0,0.0953,0.0957,0.0963,0.0963,0.0964,0.0971,0.0964,0.0967,0.0962,0.0958,0.0965,0.0963,0.0965,0.0967,0.0962,0.0975,0.0972,0.0966,0.0955,0.0972,0.0978,0.098,0.0947,0.0947,0.0947,0.0947,0,0,0.0983,0.0978,0.098,0.0979,0.0977,0.098,0.0986,0.0987,0.0989,0.099,0.0994,0.0999,0.0993,0.0993,0.0988,0.0993,0.1008,0.0986,0.0986,0.099,0.1022,0.1027,0.103,0.1004,0.1004,0.1005,0.1022,0,0.1001,0.1011,0.1004,0.1015,0.1018,0.1008,0.1014,0.1013,0.101,0.1012,0.1009,0.1012,0.1004,0.1004,0.1009,0.1005,0.1015,0.1004,0.1008,0.1008,0.1008,0.1033,0.1038,0.1055,0.1024,0.1025,0.1025,0,0.1024,0.1024,0.1035,0.1032,0.1033,0.1038,0.1038,0.1041,0.104,0.1037,0.1038,0.1032,0.1037,0.1028,0.1035,0.1028,0.1029,0.1028,0.1028,0.1028,0.1017,0.1033,0.106,0.1062,0.1029,0.1028,0.1028,0,0.1044,0.1047,0.1054,0.1054,0.105,0.1054,0.1052,0.1051,0.1052,0.1052,0.1053,0.1055,0.1055,0.1057,0.1051,0.1044,0.1059,0.1049,0.1057,0.1057,0.106,0.106,0.1087,0.1062,0.1062,0.1062,0.1062,0,0.1065,0.1072,0.1063,0.1067,0.1075,0.1067,0.1075,0.1073,0.1071,0.1075,0.1066,0.107,0.1063,0.1065,0.1061,0.1068,0.1068,0.1066,0.1065,0.1067,0.1067,0.1067,0.1066,0.1062,0.1062,0.1062,0.1062,0,0.1088,0.1082,0.1089,0.1085,0.1084,0.109,0.1086,0.109,0.1086,0.1091,0.1092,0.1086,0.1089,0.1083,0.1086,0.1083,0.1092,0.1089,0.1092,0.1091,0.11,0.1099,0.1128,0.1131,0.1104,0.1104,0.1104,0,0.1101,0.1106,0.1102,0.1104,0.1103,0.1106,0.1107,0.11,0.1102,0.1101,0.1104,0.1107,0.1108,0.1113,0.1109,0.1111,0.1108,0.1118,0.1108,0.111,0.1107,0.1107,0.1107,0.112,0.112,0.112,0.1121,0,0.1126,0.1122,0.1124,0.1125,0.1126,0.1127,0.1127,0.1129,0.1121,0.1123,0.1126,0.1127,0.1129,0.1131,0.1132,0.1131,0.1125,0.1124,0.1126,0.1127,0.1129,0.1127,0.1097,0.1123,0.1123,0.1123,0.1122,0.1122,0.1144,0.1148,0.1145,0.1148,0.1147,0.1147,0.115,0.1147,0.1149,0.115,0.1146,0.1149,0.1148,0.1148,0.1148,0.115,0.1146,0.1149,0.1149,0.115,0.1151,0.1129,0.1151,0.1151,0.115,0.115,0.115,0,0.1167,0.1165,0.1167,0.1167,0.1169,0.1163,0.1162,0.1164,0.1167,0.1166,0.1168,0.1171,0.1173,0.1169,0.1171,0.1174,0.1171,0.1174,0.1174,0.1173,0.1155,0.1153,0.1177,0.1177,0.1177,0.1177,0.1177,0.1177,0.1179,0.1186,0.1182,0.1188,0.1186,0.1189,0.1189,0.1189,0.1189,0.1192,0.1194,0.1192,0.119,0.1191,0.1193,0.1191,0.1192,0.1197,0.1195,0.1177,0.1175,0.1172,0.117,0.1197,0.1197,0.1212,0.1213,0.1213]}]]